Seward, AK

11:07 AM AKDT on March 30, 2017 (GMT -0800)
Seward

Weather History for PAWD - September, 2013

Change the Weather History Date:

Thursday, September 5, 2013

  Actual Average Record
Temperature  
Mean Temperature 49 °F -  
Max Temperature 57 °F 58 °F 70 °F (1985)
Min Temperature 43 °F 46 °F 39 °F (1980)
Degree Days  
Heating Degree Days 16    
Moisture  
Dew Point 45 °F    
Average Humidity 84    
Maximum Humidity 97    
Minimum Humidity 67    
Precipitation  
Precipitation 0.02 in - - ()
Sea Level Pressure  
Sea Level Pressure 30.00 in    
Wind  
Wind Speed 4 mph (South)    
Max Wind Speed 12 mph    
Max Gust Speed 20 mph    
Visibility 10 miles    
Events Rain    
Averages and records for this station are not official NWS values.
T = Trace of Precipitation, MM = Missing Value Source: NWS Daily Summary

Daily Weather History Graph

Daily Weather History Graph

Search for Another Location

Airport or City:

Trip Planner

Search our weather history database for the weather conditions in past years. The results will help you decide how hot, cold, wet, or windy it might be!

Date:

Astronomy

Sep. 05, 2013 Rise Set
Actual Time 7:02 AM AKDT 8:47 PM AKDT
Civil Twilight 6:18 AM AKDT 9:31 PM AKDT
Nautical Twilight 5:22 AM AKDT 10:27 PM AKDT
Astronomical Twilight 4:13 AM AKDT 11:35 PM AKDT
Moon 7:43 AM AKDT (9/5) 8:18 PM AKDT (9/5)
Length of Visible Light 15h 13m
Length of Day
13h 44m
New Moon, 0% of the Moon is Illuminated
Sep 5
New Moon
Sep 12
First Quarter
Sep 19
Full
Sep 26
Last Quarter
Oct 4
New

Hourly Weather History & Observations

Time (AKDT) Temp. Windchill Dew Point Humidity Pressure Visibility Wind Dir Wind Speed Gust Speed Precip Events Conditions
12:53 AM 44.1 °F - 43.0 °F 96% 29.88 in 9.0 mi Calm Calm - N/A   Clear
1:53 AM 43.0 °F 40.3 °F 42.1 °F 97% 29.91 in 10.0 mi NNW 4.6 mph - N/A   Clear
2:53 AM 43.0 °F - 42.1 °F 97% 29.92 in 10.0 mi Calm Calm - N/A   Mostly Cloudy
3:53 AM 45.0 °F - 44.1 °F 97% 29.93 in 10.0 mi Calm Calm - N/A   Mostly Cloudy
4:53 AM 46.0 °F - 45.0 °F 96% 29.94 in 10.0 mi Calm Calm - N/A   Mostly Cloudy
5:53 AM 46.0 °F - 45.0 °F 96% 29.96 in 10.0 mi Calm Calm - 0.00 in   Overcast
6:53 AM 46.9 °F - 46.0 °F 97% 29.97 in 10.0 mi NNW 3.5 mph - 0.01 in   Overcast
7:53 AM 46.9 °F - 45.0 °F 93% 29.98 in 6.0 mi Calm Calm - 0.00 in Rain Light Rain
8:53 AM 52.0 °F - 46.0 °F 80% 29.99 in 6.0 mi SSE 6.9 mph - 0.01 in Rain Light Rain
9:53 AM 52.0 °F - 45.0 °F 77% 30.01 in 10.0 mi South 11.5 mph - 0.00 in   Scattered Clouds
10:53 AM 53.1 °F - 46.0 °F 77% 30.03 in 10.0 mi SSW 11.5 mph - N/A   Overcast
11:53 AM 54.0 °F - 45.0 °F 72% 30.04 in 10.0 mi SSW 11.5 mph 19.6 mph N/A   Overcast
12:53 PM 54.0 °F - 45.0 °F 72% 30.05 in 10.0 mi SSW 11.5 mph - N/A   Overcast
1:53 PM 55.9 °F - 46.0 °F 69% 30.05 in 10.0 mi SSW 11.5 mph - N/A   Overcast
2:53 PM 55.9 °F - 45.0 °F 67% 30.05 in 10.0 mi South 8.1 mph - N/A   Mostly Cloudy
3:53 PM 55.0 °F - 45.0 °F 69% 30.05 in 10.0 mi SSW 11.5 mph - N/A   Overcast
4:53 PM 55.9 °F - 46.0 °F 69% 30.04 in 10.0 mi SSE 8.1 mph - N/A   Overcast
5:53 PM 55.9 °F - 46.0 °F 69% 30.04 in 10.0 mi Variable 4.6 mph - N/A   Overcast
6:53 PM 55.0 °F - 45.0 °F 69% 30.04 in 10.0 mi SSE 5.8 mph - N/A   Overcast
7:53 PM 53.1 °F - 46.9 °F 80% 30.04 in 9.0 mi ESE 6.9 mph - 0.00 in Rain Light Rain
8:53 PM 50.0 °F - 46.9 °F 89% 30.04 in 10.0 mi Calm Calm - 0.00 in   Mostly Cloudy
9:53 PM 50.0 °F - 48.0 °F 93% 30.04 in 10.0 mi Calm Calm - N/A   Overcast
10:53 PM 50.0 °F - 48.0 °F 93% 30.04 in 10.0 mi Calm Calm - N/A   Overcast
11:53 PM 48.9 °F - 46.9 °F 93% 30.02 in 10.0 mi Calm Calm - N/A   Overcast